Jacob Walker

Chefscout - Peterborough United
4 Apr 2027
Sonntag
Verarbeitung

Persönlichkeit

Anpassungsfähigkeit (20) Ehrgeiz (1) Kontroverse (17) Loyalität (16) Druck (3) Professionalität (2) Fairness (4) Temperament (1)

Profil

Trainerstil Demokratisch
Lizenz Kontinentale Pro
Entschlossenheit 6
Menschenführung 7
Motivation 9
Disziplin 3
Arbeitszufriedenheit
100%
Ermüdung
0%
Rolle Chefscout
Gehalt 61.3K p/W
Vertrag 14.03.2028

Leistung

Verhalten Gut
Trainingseffektivität
31%
Spielerentwicklung
55%
Verletzungsprävention
45%
Taktische Umsetzung
15%

Letzte Ereignisse

Nahm an einer Scouting-Besprechung teil jetzt
Empfahl ein Transferziel jetzt
Nahm an einer Scouting-Besprechung teil 7T her
Empfahl ein Transferziel 7T her
Empfahl ein Transferziel 7T her
Empfahl ein Transferziel 7T her
Empfahl ein Transferziel 14T her
Empfahl ein Transferziel 14T her

Aktuell beobachtet

176
Spieler Verein Status Fähigkeit Vertrauen Beobachtet Zuletzt beobachtet Letzte Stimme
Ibrahim Tarek Masr El Makasa Aktiv 133 / 120 40% 3 18.01.2027 -
Vitalii Dakhnovskyi Bukovyna Aktiv 100 / 101 40% 2 18.01.2027 -
Kyle John Port Vale Bericht bereit 97 / 99 65% 1 18.01.2027 Befürworten
Jack Currie Oxford United Aktiv 128 / 113 40% 1 18.01.2027 -
Mohammed Hussein Hearts of Oak Aktiv 101 / 107 40% 3 16.01.2027 -
Mpho Mathebula Bloemfontein Celtic Aktiv 112 / 106 40% 2 16.01.2027 -
Hlompho Zungu Free State Stars Aktiv 100 / 76 40% 1 16.01.2027 -
Happy Mashiane Bidvest Wits Aktiv 102 / 91 40% 2 14.01.2027 -
Riley Owen Pergolettese Aktiv 95 / 97 40% 1 14.01.2027 -
Isaac Twum Hearts of Oak Aktiv 96 / 104 40% 3 13.01.2027 -
Juan Bezerra Zamalek Aktiv 121 / 123 40% 1 13.01.2027 -
Brian Figueroa Morelia Aktiv 103 / 110 40% 1 13.01.2027 -
Wandile Duba Bidvest Wits Aktiv 112 / 95 40% 9 11.01.2027 -
Fábio Tavares Newport County Aktiv 100 / 101 40% 2 10.01.2027 -
Yevhen Pidlepenets Bukovyna Aktiv 107 / 106 40% 1 10.01.2027 -
Kyreece Lisbie Colchester United Aktiv 114 / 119 40% 1 10.01.2027 -
Jordan Bowery Mansfield Town Verloren 102 / 98 65% 1 06.01.2027 -
Sebastian Soto ES Ben Aknoun Aktiv 108 / 95 40% 3 29.12.2026 -
Rodney Maphangule Polokwane City Aktiv 92 / 96 40% 2 29.12.2026 -
Tomás Molina Argentinos Juniors Aktiv 133 / 115 40% 2 29.12.2026 -
Gilson Benchimol Akron Aktiv 121 / 95 40% 1 29.12.2026 -
Samuel Adegbenro Dynamo Kyiv Aktiv 116 / 135 40% 4 27.12.2026 -
Marcus Browne AFC Wimbledon Aktiv 111 / 114 40% 2 27.12.2026 -
Jorge Padilla Cherno More Aktiv 112 / 120 40% 2 27.12.2026 -
Edarlyn Reyes Arsenal Tula Aktiv 103 / 114 40% 2 26.12.2026 -
Qara Ozobic Inter Aktiv 101 / 107 40% 1 26.12.2026 -
Luke Molyneux Doncaster Rovers Abgelehnt 116 / 120 40% 1 26.12.2026 Mehr Infos nötig
Richard Boadu Aduana Stars Aktiv 98 / 93 40% 1 26.12.2026 -
Asanele Bonani Chippa United Aktiv 101 / 95 40% 1 26.12.2026 -
Kwame Opoku Asante Kotoko Aktiv 108 / 103 40% 2 23.12.2026 -
Mykola Haiduchyk Polissia Aktiv 102 / 120 40% 1 23.12.2026 -
Itumeleng Manyama Free State Stars Aktiv 102 / 101 40% 3 22.12.2026 -
Bradley Mothiba SuperSport United Aktiv 100 / 93 40% 3 22.12.2026 -
Alexandr Yushin Torpedo Moscow Aktiv 96 / 104 40% 1 22.12.2026 -
Sam Nombe Milton Keynes Dons Aktiv 105 / 115 40% 1 22.12.2026 -
Jack Vale Alcione Milano Aktiv 88 / 94 40% 1 22.12.2026 -
Brandon Hanlan Doncaster Rovers Aktiv 97 / 101 40% 1 20.12.2026 -
Miro Dinamo Makhachkala Aktiv 99 / 115 40% 1 20.12.2026 -
Amos Inusah Wa All Stars Aktiv 111 / 105 40% 9 19.12.2026 -
Suleiman Abdullahi Military Production Aktiv 85 / 97 40% 2 19.12.2026 -
Felix Kudus Hasaacas Aktiv 94 / 92 40% 2 19.12.2026 -
Stephen Humphrys Bradford City Abgelehnt 111 / 99 40% 1 19.12.2026 Mehr Infos nötig
Isaac Hemans Ashanti Gold Aktiv 110 / 110 40% 1 18.12.2026 -
Gift Mokoena Free State Stars Aktiv 117 / 104 40% 1 18.12.2026 -
Lebogang Zwane Black Aces Aktiv 114 / 114 40% 1 18.12.2026 -
Thulani Mabaso Platinum Stars Aktiv 116 / 108 40% 3 17.12.2026 -
Luke Baartman Chippa United Aktiv 113 / 98 40% 1 14.12.2026 -
Milán Tóth Vasas Aktiv 117 / 124 40% 1 13.12.2026 -
Frédéric Maciel CSKA 1948 Aktiv 102 / 99 40% 1 13.12.2026 -
Agustín Ramírez Inter Aktiv 112 / 91 40% 2 11.12.2026 -
Duncan Watmore Rotherham United Aktiv 105 / 119 40% 1 11.12.2026 -
Hakim Sulemana Ashanti Gold Aktiv 96 / 112 40% 1 11.12.2026 -
Akinkunmi Amoo Ismaily Aktiv 108 / 108 40% 1 11.12.2026 -
Luther Zwane Platinum Stars Aktiv 104 / 126 40% 3 09.12.2026 -
Siyanda Msani University of Pretoria Aktiv 116 / 97 40% 2 09.12.2026 -
Jack Marriott Reading Aktiv 97 / 92 40% 1 09.12.2026 -
Derrick Etienne Jr. Toronto FC Aktiv 112 / 107 40% 1 09.12.2026 -
Elvis Baffour Asante Kotoko Aktiv 83 / 87 40% 1 09.12.2026 -
John Okoye Ebuka Ittihad Aktiv 107 / 114 40% 2 07.12.2026 -
Luca Martínez Dupuy Godoy Cruz Abgelehnt 120 / 127 40% 1 07.12.2026 Mehr Infos nötig
Barna Tóth Paksi Aktiv 103 / 107 40% 1 07.12.2026 -
Kahraba ENPPI Aktiv 107 / 101 40% 2 06.12.2026 -
Tiago Pucciarelli FK Senica Aktiv 103 / 115 40% 1 06.12.2026 -
Makabi Lilepo Kaizer Chiefs Aktiv 116 / 113 40% 1 06.12.2026 -
Themba Manyama Ajax Cape Town Aktiv 101 / 88 40% 4 05.12.2026 -
Silas Nwankwo Police Union Aktiv 85 / 98 40% 4 05.12.2026 -
Jerome Karelse Golden Arrows Aktiv 108 / 111 40% 2 05.12.2026 -
Favio Cabral Mitre Aktiv 129 / 105 40% 2 04.12.2026 -
Assad Al Hamlawi Universitatea Craiova Aktiv 128 / 114 40% 3 04.12.2026 -
Azola Matrose Chippa United Aktiv 108 / 87 40% 2 04.12.2026 -
Mark Helm Fleetwood Town Aktiv 101 / 105 40% 1 04.12.2026 -
Mpho Mvundlela Polokwane City Aktiv 104 / 107 40% 1 04.12.2026 -
Andile Zungu Platinum Stars Aktiv 117 / 96 40% 1 03.12.2026 -
Simphiwe Selepe Orlando Pirates Aktiv 102 / 111 40% 1 03.12.2026 -
Achraf Bencharki Al Ahly Aktiv 129 / 125 40% 6 01.12.2026 -
Jhonatan Candia Barracas Central Aktiv 120 / 111 40% 6 28.11.2026 -
Yanela Mbuthuma Orlando Pirates Aktiv 120 / 107 40% 3 28.11.2026 -
Dino Islamović Rosenborg Aktiv 124 / 128 40% 2 27.11.2026 -
Rodrigo Bogarín Barracas Central Aktiv 131 / 125 40% 2 27.11.2026 -
Matthew Hoppe SonderjyskE Aktiv 119 / 111 40% 2 27.11.2026 -
Mandla Dala SuperSport United Aktiv 103 / 100 40% 2 26.11.2026 -
Aaron Drinan Swindon Town Aktiv 98 / 108 40% 1 26.11.2026 -
Yurii Klymchuk Kolos Aktiv 110 / 105 40% 1 26.11.2026 -
Sazi Gumbi Bloemfontein Celtic Aktiv 94 / 100 40% 1 26.11.2026 -
Erick Ngcobo Black Aces Abgelehnt 104 / 87 40% 2 25.11.2026 Mehr Infos nötig
Stefan Vukić Rudes Aktiv 108 / 121 40% 1 24.11.2026 -
Bienvenue Kanakimana Zbrojovka Brno Aktiv 107 / 119 40% 1 20.11.2026 -
Emiliano Marcondes OB Aktiv 116 / 98 40% 4 19.11.2026 -
George Puşcaş Dinamo Bucharest Aktiv 122 / 133 40% 4 16.11.2026 -
Noah Ganaus OB Aktiv 117 / 121 40% 1 15.11.2026 -
Isaiah Nyarko Bechem United Aktiv 75 / 104 40% 1 15.11.2026 -
Sinoxolo Kwayiba Chippa United Abgelehnt 103 / 115 40% 2 14.11.2026 Mehr Infos nötig
Dillon Hoogewerf ES Mostaganem Aktiv 103 / 92 40% 1 13.11.2026 -
Ali Soliman Masr El Makasa Aktiv 118 / 130 40% 1 13.11.2026 -
Brian White Vancouver Whitecaps Aktiv 123 / 113 40% 5 11.11.2026 -
Rivaldo Ngcobo Free State Stars Aktiv 98 / 101 40% 5 11.11.2026 -
Solly Khunyedi Bloemfontein Celtic Aktiv 86 / 85 40% 2 10.11.2026 -
Iuri Tavares NK Varazdin Aktiv 110 / 117 40% 1 10.11.2026 -
Tashreeq Morris Bloemfontein Celtic Aktiv 95 / 107 40% 2 07.11.2026 -
Facundo Castro Nueva Chicago Aktiv 110 / 112 40% 4 07.11.2026 -
Salah Mohsen El Masry Aktiv 121 / 132 40% 1 06.11.2026 -
Corey Baird CF Montreal Aktiv 123 / 112 40% 4 05.11.2026 -
Marcelo Torres Gimnasia La Plata Aktiv 130 / 104 40% 2 04.11.2026 -
Keagan Manyama Ajax Cape Town Aktiv 115 / 113 40% 1 04.11.2026 -
Patrick Djiku WAFA Aktiv 98 / 94 40% 1 04.11.2026 -
David Atanga FC Copenhagen Aktiv 118 / 117 40% 1 02.11.2026 -
Florin Tănase FCSB Aktiv 118 / 128 40% 1 31.10.2026 -
Sergio Santos Atlanta United FC Aktiv 104 / 99 40% 2 30.10.2026 -
Rodin Quiñónes Dinamo Batumi Aktiv 124 / 117 40% 1 29.10.2026 -
Teboho Kekana Free State Stars Aktiv 100 / 72 40% 1 29.10.2026 -
Ernest Agyiri Randers Aktiv 92 / 106 40% 1 29.10.2026 -
Gift Motupa Bloemfontein Celtic Aktiv 87 / 84 40% 2 27.10.2026 -
Andreas Gruber DAC Dunajska Streda Aktiv 119 / 109 40% 1 27.10.2026 -
Timothy Zechariah Rivers United Aktiv 95 / 88 40% 1 27.10.2026 -
Harry Cornick AFC Wimbledon Aktiv 98 / 113 40% 1 24.10.2026 -
Marcelo Estigarribia Unión de Santa Fe Aktiv 109 / 132 40% 2 23.10.2026 -
Preston Judd San Jose Earthquakes Aktiv 92 / 116 40% 3 22.10.2026 -
Leandro Suhr Boston River Aktiv 124 / 134 40% 4 21.10.2026 -
Álex Arce Independiente Rivadavia Aktiv 139 / 118 40% 1 21.10.2026 -
Maclyn Biokpo Jenewari Rivers United Aktiv 88 / 121 40% 2 17.10.2026 -
Beryly Lubala CSKA 1948 Aktiv 86 / 98 40% 2 16.10.2026 -
Michael Vadulli Audax Italiano Aktiv 115 / 113 40% 1 12.10.2026 -
Hamdi Akujobi Jomo Cosmos Aktiv 115 / 116 40% 1 12.10.2026 -
Simon Ramabu Polokwane City Aktiv 109 / 111 40% 1 12.10.2026 -
Fortune Bassey Rivers United Aktiv 97 / 104 40% 1 10.10.2026 -
Federico Martínez Liverpool Montevideo Aktiv 128 / 122 40% 1 10.10.2026 -
Alejandro Melo Temperley Aktiv 126 / 108 40% 1 09.10.2026 -
Lucio Castillo Colegiales Aktiv 112 / 119 40% 1 09.10.2026 -
Uroš Đuranović Sliema Wanderers Aktiv 110 / 99 40% 3 08.10.2026 -
Ronan Hale Gillingham Aktiv 116 / 116 40% 2 07.10.2026 -
Siphelele Mthembu Maritzburg United Aktiv 92 / 89 40% 1 06.10.2026 -
Ronaldo Maarman University of Pretoria Aktiv 97 / 118 40% 1 06.10.2026 -
Chukwuemeka Obioma Abia Warriors Aktiv 90 / 89 40% 2 03.10.2026 -
Evidence Mokoena Platinum Stars Aktiv 88 / 92 40% 1 03.10.2026 -
Edwar López Deportes Tolima Aktiv 128 / 122 40% 2 29.09.2026 -
Michael Nike Patriotas Aktiv 93 / 122 40% 2 29.09.2026 -
Kyogo Furuhashi LA Galaxy Aktiv 111 / 97 40% 2 28.09.2026 -
Esteban Obregón Montevideo City Torque Aktiv 110 / 98 40% 1 28.09.2026 -
Franco Fagúndez Estudiantes Aktiv 103 / 106 40% 2 27.09.2026 -
Juan Dinenno Pumas UNAM Aktiv 118 / 142 40% 1 25.09.2026 -
Fernando Mimbacas Juventud Aktiv 109 / 128 40% 1 25.09.2026 -
Lucky Emmanuel Shooting Stars Aktiv 95 / 109 40% 1 20.09.2026 -
Marco Miori Alvarado Aktiv 97 / 127 40% 1 19.09.2026 -
Sédé Dion Golden Arrows Aktiv 111 / 119 40% 1 19.09.2026 -
Luciano Cosentino Wanderers Aktiv 123 / 104 40% 2 17.09.2026 -
Joaquín Zeballos Wanderers Aktiv 114 / 116 40% 1 17.09.2026 -
Shodeinde Moses Ikorodu City Aktiv 86 / 77 40% 1 15.09.2026 -
Santiago Toloza O'Higgins Aktiv 124 / 117 40% 1 15.09.2026 -
Lebo Mothiba Mamelodi Sundowns Aktiv 107 / 114 40% 3 12.09.2026 -
Nicolás Sosa Racing Aktiv 121 / 114 40% 1 12.09.2026 -
Ibrahim Aliyu Houston Dynamo Aktiv 116 / 110 40% 4 10.09.2026 -
CJ Fodrey Austin FC Aktiv 90 / 117 40% 1 10.09.2026 -
Benji Kikanović San Jose Earthquakes Aktiv 93 / 112 40% 1 10.09.2026 -
Enock Morrison Gor Mahia Aktiv 87 / 105 40% 1 09.09.2026 -
Reed Baker-Whiting Nashville SC Aktiv 98 / 128 40% 1 09.09.2026 -
Djibril Diani Charlotte Football Club Aktiv 110 / 122 40% 1 09.09.2026 -
Patrick Schmidt Tarxien Rainbows Aktiv 105 / 108 40% 1 09.09.2026 -
Ahmet Arslan Breidablik Aktiv 113 / 108 40% 1 08.09.2026 -
Kagiso Malinga Bidvest Wits Aktiv 88 / 113 40% 1 08.09.2026 -
Bruno Larregui Juventud Aktiv 115 / 104 40% 2 04.09.2026 -
Victor Mbaoma Tusker Aktiv 87 / 83 40% 1 04.09.2026 -
Antoni Sarcevic Bradford City Aktiv 115 / 101 65% 1 31.08.2026 Befürworten
Justo Giani Universidad Catolica Aktiv 111 / 138 40% 1 30.08.2026 -
Ousséni Bouda San Jose Earthquakes Aktiv 101 / 103 40% 2 28.08.2026 -
Clemente Montes Universidad Catolica Aktiv 111 / 128 40% 1 28.08.2026 -
Jack Lynn San Jose Earthquakes Aktiv 90 / 97 40% 2 26.08.2026 -
Alejo Cruz Juventud Aktiv 132 / 128 40% 1 25.08.2026 -
Craig Forsyth Derby County Aktiv 104 / 112 65% 1 24.08.2026 Befürworten
Ivan Schranz Slavia Prague Aktiv 137 / 109 40% 1 24.08.2026 -
Jeremy Rafanello Philadelphia Union Aktiv 106 / 99 40% 1 24.08.2026 -
Jorge Obregón Deportivo Pasto Aktiv 104 / 114 40% 1 23.08.2026 -
Joe Abrigo Palestino Aktiv 109 / 92 40% 1 22.08.2026 -
Lucas González Estudiantes Aktiv 119 / 128 40% 1 21.08.2026 -
Andrey Estupiñán Millonarios Aktiv 118 / 100 40% 1 21.08.2026 -
Jáder Obrian Santa Fe Aktiv 108 / 99 40% 1 20.08.2026 -
Daniel Ríos CF Montreal Aktiv 116 / 106 40% 1 01.08.2026 -